| time (UTC) | temp C | wind direction | speed KPH | gust KPH | rain 1hr cm | rain 24hr cm | rain mn cm | humidity % | barometer mb |
| 20260505025044 | 17 | 136 | 1.6 | 3.2 | 0.00 | 0.00 | 0.00 | 65 | 1034.6 |
| 20260505024040 | 17 | 130 | 1.6 | 4.8 | 0.00 | 0.00 | 0.00 | 65 | 1034.6 |
| 20260505023037 | 17 | 135 | 3.2 | 4.8 | 0.00 | 0.00 | 0.00 | 68 | 1034.7 |
| 20260505022033 | 17 | 129 | 1.6 | 4.8 | 0.00 | 0.00 | 0.00 | 64 | 1034.7 |
| 20260505021030 | 17 | 117 | 1.6 | 3.2 | 0.00 | 0.00 | 0.00 | 64 | 1034.8 |
| 20260505020108 | 17 | 161 | 3.2 | 6.4 | 0.00 | 0.00 | 0.00 | 64 | 1034.8 |
| 20260505015043 | 18 | 117 | 1.6 | 4.8 | 0.00 | 0.00 | 0.00 | 63 | 1034.9 |
| 20260505014019 | 18 | 98 | 3.2 | 6.4 | 0.00 | 0.00 | 0.00 | 64 | 1035.0 |
| 20260505013135 | 17 | 123 | 1.6 | 4.8 | 0.00 | 0.00 | 0.00 | 64 | 1035.1 |
| 20260505012155 | 17 | 135 | 1.6 | 4.8 | 0.00 | 0.00 | 0.00 | 64 | 1035.2 |
| 20260505011108 | 17 | 135 | 3.2 | 4.8 | 0.00 | 0.00 | 0.00 | 63 | 1035.3 |
| 20260505010105 | 17 | 79 | 0.0 | 3.2 | 0.00 | 0.00 | 0.00 | 64 | 1035.5 |
| 20260505005100 | 17 | 55 | 3.2 | 6.4 | 0.00 | 0.00 | 0.00 | 63 | 1035.6 |
| 20260505004058 | 17 | 126 | 1.6 | 3.2 | 0.00 | 0.00 | 0.00 | 63 | 1035.9 |
| 20260505003053 | 17 | 0.0 | 0.0 | 0.00 | 0.00 | 0.00 | 63 | 1036.0 | |
| 20260505002049 | 17 | 112 | 1.6 | 3.2 | 0.00 | 0.00 | 0.00 | 63 | 1036.2 |
| 20260505001047 | 17 | 70 | 1.6 | 3.2 | 0.00 | 0.00 | 0.00 | 62 | 1036.2 |
| 20260505000041 | 17 | 45 | 1.6 | 3.2 | 0.00 | 0.00 | 0.00 | 66 | 1036.4 |
| 20260504235038 | 17 | 69 | 1.6 | 3.2 | 0.00 | 0.00 | 0.00 | 66 | 1036.5 |
| 20260504234035 | 17 | 81 | 3.2 | 4.8 | 0.00 | 0.00 | 0.00 | 65 | 1036.6 |
| 20260504233031 | 17 | 140 | 1.6 | 4.8 | 0.00 | 0.00 | 0.00 | 63 | 1036.7 |
| 20260504232048 | 18 | 117 | 1.6 | 6.4 | 0.00 | 0.00 | 0.00 | 58 | 1036.8 |
| 20260504231024 | 18 | 147 | 4.8 | 8.0 | 0.00 | 0.00 | 0.00 | 57 | 1036.9 |
| 20260504230042 | 20 | 103 | 3.2 | 6.4 | 0.00 | 0.00 | 0.00 | 56 | 1036.9 |
| 20260504225039 | 19 | 123 | 3.2 | 6.4 | 0.00 | 0.00 | 0.00 | 57 | 1036.9 |
| 20260504224114 | 17 | 140 | 3.2 | 6.4 | 0.00 | 0.00 | 0.00 | 61 | 1036.8 |
| 20260504223132 | 16 | 153 | 1.6 | 4.8 | 0.00 | 0.00 | 0.00 | 64 | 1036.8 |
| 20260504222127 | 16 | 132 | 1.6 | 3.2 | 0.00 | 0.00 | 0.00 | 62 | 1036.8 |
| 20260504221104 | 18 | 135 | 3.2 | 4.8 | 0.00 | 0.00 | 0.00 | 55 | 1036.8 |
| 20260504220100 | 18 | 23 | 1.6 | 3.2 | 0.00 | 0.00 | 0.00 | 55 | 1036.9 |
| 20260504215057 | 19 | 23 | 1.6 | 3.2 | 0.00 | 0.00 | 0.00 | 53 | 1036.8 |
| 20260504214114 | 19 | 23 | 1.6 | 4.8 | 0.00 | 0.00 | 0.00 | 52 | 1036.8 |
| 20260504213050 | 19 | 23 | 1.6 | 3.2 | 0.00 | 0.00 | 0.00 | 52 | 1036.7 |
| 20260504212047 | 20 | 23 | 1.6 | 3.2 | 0.00 | 0.00 | 0.00 | 53 | 1036.7 |
| 20260504211043 | 19 | 23 | 0.0 | 3.2 | 0.00 | 0.00 | 0.00 | 57 | 1036.7 |
| 20260504210101 | 17 | 23 | 0.0 | 3.2 | 0.00 | 0.00 | 0.00 | 61 | 1036.6 |
| 20260504205038 | 17 | 23 | 0.0 | 3.2 | 0.00 | 0.00 | 0.00 | 68 | 1036.6 |
| 20260504204033 | 16 | 23 | 0.0 | 3.2 | 0.00 | 0.00 | 0.00 | 77 | 1036.5 |
| 20260504203029 | 13 | 0.0 | 0.0 | 0.00 | 0.00 | 0.00 | 82 | 1036.5 | |
| 20260504202106 | 12 | 0.0 | 0.0 | 0.00 | 0.00 | 0.00 | 85 | 1036.4 | |
| 20260504201022 | 11 | 0.0 | 0.0 | 0.00 | 0.00 | 0.00 | 87 | 1036.3 | |
| 20260504200020 | 10 | 0.0 | 0.0 | 0.00 | 0.00 | 0.00 | 87 | 1036.1 | |
| 20260504195136 | 10 | 0.0 | 0.0 | 0.00 | 0.00 | 0.00 | 88 | 1036.0 | |
| 20260504194112 | 10 | 0.0 | 0.0 | 0.00 | 0.00 | 0.00 | 88 | 1035.8 | |
| 20260504193109 | 9 | 0.0 | 0.0 | 0.00 | 0.00 | 0.00 | 88 | 1035.8 | |
| 20260504192105 | 9 | 0.0 | 0.0 | 0.00 | 0.00 | 0.00 | 87 | 1035.8 | |
| 20260504191123 | 9 | 0.0 | 0.0 | 0.00 | 0.00 | 0.00 | 87 | 1035.6 | |
| 20260504190100 | 9 | 0.0 | 0.0 | 0.00 | 0.00 | 0.00 | 87 | 1035.5 | |
| 20260504185057 | 9 | 0.0 | 0.0 | 0.00 | 0.00 | 0.00 | 87 | 1035.6 | |
| 20260504184051 | 10 | 0.0 | 0.0 | 0.00 | 0.00 | 0.00 | 89 | 1035.5 | |
| 20260504183048 | 10 | 0.0 | 0.0 | 0.00 | 0.00 | 0.00 | 91 | 1035.5 | |
| 20260504182106 | 10 | 0.0 | 1.6 | 0.00 | 0.00 | 0.00 | 93 | 1035.7 | |
| 20260504181041 | 10 | 248 | 1.6 | 4.8 | 0.00 | 0.00 | 0.00 | 94 | 1035.8 |
| 20260504180038 | 10 | 0.0 | 0.0 | 0.00 | 0.00 | 0.00 | 94 | 1035.7 | |
| 20260504175037 | 9 | 0.0 | 0.0 | 0.00 | 0.00 | 0.00 | 94 | 1035.6 | |
| 20260504174030 | 9 | 0.0 | 0.0 | 0.00 | 0.00 | 0.00 | 94 | 1035.6 | |
| 20260504173029 | 8 | 0.0 | 0.0 | 0.00 | 0.00 | 0.00 | 94 | 1035.6 | |
| 20260504172023 | 8 | 0.0 | 0.0 | 0.00 | 0.00 | 0.00 | 93 | 1035.7 | |
| 20260504171021 | 8 | 0.0 | 0.0 | 0.00 | 0.00 | 0.00 | 93 | 1035.7 | |
| 20260504151038 | 10 | 0.0 | 0.0 | 0.00 | 0.00 | 0.00 | 96 | 1036.4 | |
| 20260504150119 | 9 | 0.0 | 1.6 | 0.00 | 0.00 | 0.00 | 96 | 1036.4 | |
| 20260504141018 | 8 | 0.0 | 0.0 | 0.00 | 0.00 | 0.00 | 94 | 1037.1 | |
| 20260504140112 | 8 | 0.0 | 1.6 | 0.00 | 0.00 | 0.00 | 93 | 1037.3 | |
| 20260504110112 | 10 | 0.0 | 0.0 | 0.00 | 0.00 | 0.00 | 79 | 1037.6 | |
| 20260504081113 | 10 | 225 | 4.8 | 6.4 | 0.00 | 0.00 | 0.00 | 86 | 1037.6 |
| 20260504080147 | 10 | 228 | 3.2 | 6.4 | 0.00 | 0.00 | 0.00 | 87 | 1037.4 |
| 20260504070130 | 11 | 228 | 4.8 | 6.4 | 0.00 | 0.00 | 0.00 | 86 | 1036.9 |
| 20260504050105 | 13 | 0.0 | 0.0 | 0.00 | 0.00 | 0.00 | 72 | 1036.1 | |
| 20260504045144 | 13 | 0.0 | 0.0 | 0.00 | 0.00 | 0.00 | 71 | 1036.1 | |
| 20260504044059 | 14 | 0.0 | 0.0 | 0.00 | 0.00 | 0.00 | 71 | 1036.1 | |
| 20260504043054 | 15 | 0.0 | 1.6 | 0.00 | 0.00 | 0.00 | 71 | 1036.2 | |
| 20260504042051 | 15 | 0.0 | 1.6 | 0.00 | 0.00 | 0.00 | 70 | 1036.1 | |
| 20260504041048 | 15 | 0.0 | 1.6 | 0.00 | 0.00 | 0.00 | 69 | 1036.1 | |
| 20260504040044 | 15 | 248 | 0.0 | 3.2 | 0.00 | 0.00 | 0.00 | 68 | 1036.1 |
| 20260504035040 | 15 | 248 | 1.6 | 3.2 | 0.00 | 0.00 | 0.00 | 67 | 1036.1 |
| 20260504034037 | 16 | 248 | 4.8 | 6.4 | 0.00 | 0.00 | 0.00 | 63 | 1036.1 |
| 20260504033036 | 17 | 297 | 0.0 | 4.8 | 0.00 | 0.00 | 0.00 | 63 | 1036.1 |
| 20260504032032 | 17 | 248 | 1.6 | 6.4 | 0.00 | 0.00 | 0.00 | 61 | 1036.1 |
| 20260504031027 | 17 | 248 | 1.6 | 3.2 | 0.00 | 0.00 | 0.00 | 62 | 1036.0 |
| 20260504030044 | 17 | 117 | 1.6 | 3.2 | 0.00 | 0.00 | 0.00 | 60 | 1036.0 |